User: anonymous   Login
Location: CNYAC Observatory
(43.2150°N, 74.9500°W)
Time: 01:03:56
(UTC-04:00)
Language:

Meteor 1-22 Rocket - Orbit

View from above orbital plane
View from above orbital plane
View from above satellite
View from above satellite

Ground track
Ground track

The orbit data is extracted from the following two-line orbital elements,

1 08294U 75087B   15109.52716377  .00000013  00000-0 -15367-6 0  9997
2 08294 081.2111 072.2812 0107250 108.8586 252.4251 14.08509029 33681
Epoch (UTC): 19 April 2015 12:39:06
Eccentricity: 0.0107250
inclination: 81.2111°
perigee height: 787 km
apogee height: 942 km
right ascension of ascending node: 72.2812°
argument of perigee: 108.8586°
revolutions per day: 14.08509029
mean anomaly at epoch: 252.4251°
orbit number at epoch: 3368

The dashed part of the orbit path shows where the satellite is in the earth's shadow,  

DLR